Location: Unspecified
(35.7250°N, 0.0000°E)
Time: 16:58:33
(UTC+00:00)

Tiros 1 - Pass Details

Date: 27 June 2019
Orbit: 630 x 664 km, 48.4° (Epoch: 18 July)

Event Time Altitude Azimuth Distance (km) Brightness Sun altitude
Rises 22:33:55 0° 276° (W) 2,961 10.9 -27.3°
Reaches altitude 10° 22:36:42 10° 291° (WNW) 2,045 10.2 -27.5°
Maximum altitude 22:40:25 22° 343° (NNW) 1,390 9.5 -27.8°
Drops below altitude 10° 22:44:06 10° 36° (NE) 2,030 10.1 -28.1°
Sets 22:46:52 0° 51° (NE) 2,934 10.8 -28.3°
